EW1669 Weather Reports


Display with metric or nautical units.
time (UTC)temp
F
wind
direction
speed
MPH
gust
MPH
rain 1hr
in
rain 24hr
in
rain mn
in
humidity
%
barometer
mb
20260906131411 72 146 0.0 0.0 0.00 0.00 0.00 65 1019.4
20260906130724 71 145 0.0 0.0 0.00 0.00 0.00 66 1019.4
20260906130116 71 145 0.0 0.0 0.00 0.00 0.00 67 1019.4
20260906125736 70 146 0.0 0.0 0.00 0.00 0.00 67 1019.7
20260906124912 71 147 0.0 0.0 0.00 0.00 0.00 67 1019.4
20260906124303 71 147 0.0 0.0 0.00 0.00 0.00 66 1019.0
20260906123720 71 147 0.0 0.0 0.00 0.00 0.00 66 1019.4
20260906123053 71 147 0.0 0.0 0.00 0.00 0.00 65 1019.4
20260906122421 71 147 0.0 0.0 0.00 0.00 0.00 65 1019.4
20260906121827 71 147 0.0 0.0 0.00 0.00 0.00 64 1019.4
20260906121225 72 148 0.0 1.0 0.00 0.00 0.00 64 1019.4
20260906120554 72 148 0.0 0.0 0.00 0.00 0.00 63 1019.4
20260906115942 72 148 0.0 0.0 0.00 0.00 0.00 63 1019.4
20260906115321 72 148 0.0 0.0 0.00 0.00 0.00 63 1019.0
20260906114711 71 148 0.0 0.0 0.00 0.00 0.00 64 1019.4
20260906114101 71 148 0.0 0.0 0.00 0.00 0.00 64 1019.4
20260906113508 71 148 0.0 0.0 0.00 0.00 0.00 64 1019.0
20260906112837 71 148 0.0 0.0 0.00 0.00 0.00 65 1019.4
20260906112153 71 148 0.0 0.0 0.00 0.00 0.00 65 1019.0
20260906111525 70 148 0.0 0.0 0.00 0.00 0.00 66 1019.0
20260906110900 71 148 0.0 0.0 0.00 0.00 0.00 65 1019.0
20260906110300 71 148 0.0 0.0 0.00 0.00 0.00 64 1018.7
20260906105618 71 148 0.0 0.0 0.00 0.00 0.00 63 1018.3
20260906105007 72 148 0.0 0.0 0.00 0.00 0.00 62 1018.3
20260906104458 72 148 0.0 0.0 0.00 0.00 0.00 62 1018.7
20260906103818 72 147 0.0 0.0 0.00 0.00 0.00 62 1018.3
20260906103416 71 147 0.0 0.0 0.00 0.00 0.00 64 1018.3
20260906102745 71 147 0.0 0.0 0.00 0.00 0.00 64 1018.3
20260906101708 71 147 0.0 0.0 0.00 0.00 0.00 63 1018.3
20260906101118 72 147 0.0 0.0 0.00 0.00 0.00 62 1018.7
20260906100506 73 147 0.0 0.0 0.00 0.00 0.00 62 1018.7
20260906095917 73 147 0.0 0.0 0.00 0.00 0.00 62 1018.7
20260906095315 73 147 0.0 0.0 0.00 0.00 0.00 61 1018.3
20260906094810 73 147 0.0 0.0 0.00 0.00 0.00 60 1018.7
20260906094159 74 147 0.0 0.0 0.00 0.00 0.00 59 1018.3
20260906093500 74 147 0.0 0.0 0.00 0.00 0.00 59 1018.7
20260906092821 74 147 0.0 0.0 0.00 0.00 0.00 59 1018.3
20260906092156 74 146 0.0 0.0 0.00 0.00 0.00 58 1018.3
20260906091410 74 146 0.0 0.0 0.00 0.00 0.00 58 1018.7
20260906090710 74 146 0.0 0.0 0.00 0.00 0.00 58 1018.7
20260906090209 74 146 0.0 0.0 0.00 0.00 0.00 59 1018.7
20260906085641 74 146 0.0 0.0 0.00 0.00 0.00 58 1018.7
20260906085018 74 146 0.0 0.0 0.00 0.00 0.00 59 1018.7
20260906084401 74 146 0.0 0.0 0.00 0.00 0.00 58 1018.3
20260906083806 74 146 0.0 0.0 0.00 0.00 0.00 58 1018.7
20260906083217 75 146 0.0 0.0 0.00 0.00 0.00 57 1018.7
20260906082559 75 146 0.0 0.0 0.00 0.00 0.00 58 1018.3
20260906081941 75 146 0.0 0.0 0.00 0.00 0.00 57 1018.7
20260906081257 75 146 0.0 0.0 0.00 0.00 0.00 57 1018.7
20260906080617 75 146 0.0 0.0 0.00 0.00 0.00 57 1018.7
20260906075952 75 146 0.0 0.0 0.00 0.00 0.00 57 1018.7
20260906075624 75 146 0.0 0.0 0.00 0.00 0.00 57 1018.7
20260906074559 75 146 0.0 0.0 0.00 0.00 0.00 56 1018.3
20260906073917 76 145 0.0 0.0 0.00 0.00 0.00 56 1018.7
20260906073419 76 144 0.0 0.0 0.00 0.00 0.00 55 1018.7
20260906073044 77 141 0.0 0.0 0.00 0.00 0.00 54 1018.7
20260906072934 77 140 0.0 0.0 0.00 0.00 0.00 53 1018.3
20260906071607 77 140 0.0 0.0 0.00 0.00 0.00 52 1018.7
20260906071008 77 140 0.0 0.0 0.00 0.00 0.00 52 1018.7
20260906070459 77 136 0.0 0.0 0.00 0.00 0.00 52 1018.7
20260906065550 78 136 0.0 0.0 0.00 0.00 0.00 52 1018.7
20260906064933 78 137 0.0 4.0 0.00 0.00 0.00 52 1019.0
20260906064305 78 139 0.0 0.0 0.00 0.00 0.00 52 1019.4
20260906063635 78 137 0.0 0.0 0.00 0.00 0.00 52 1019.4
20260906063101 78 137 0.0 0.0 0.00 0.00 0.00 52 1019.4
20260906062443 79 137 0.0 2.0 0.00 0.00 0.00 51 1019.4
20260906061858 79 135 0.0 2.0 0.00 0.00 0.00 50 1019.4
20260906061351 79 128 0.0 0.0 0.00 0.00 0.00 50 1019.4
20260906061000 80 126 0.0 4.0 0.00 0.00 0.00 48 1019.4
20260906060130 80 122 0.0 0.0 0.00 0.00 0.00 48 1019.4
20260906055745 80 126 0.0 0.0 0.00 0.00 0.00 47 1019.0
20260906054919 80 127 0.0 0.0 0.00 0.00 0.00 47 1019.4
20260906054540 80 130 0.0 0.0 0.00 0.00 0.00 46 1019.4
20260906053808 81 130 0.0 0.0 0.00 0.00 0.00 46 1019.4
20260906053218 81 131 0.0 0.0 0.00 0.00 0.00 46 1019.4
20260906052600 81 132 0.0 1.0 0.00 0.00 0.00 46 1019.4
20260906051926 81 134 0.0 1.0 0.00 0.00 0.00 45 1019.4
20260906051256 81 136 0.0 0.0 0.00 0.00 0.00 44 1019.4
20260906050709 81 139 0.0 0.0 0.00 0.00 0.00 44 1019.4
20260906050135 81 136 0.0 0.0 0.00 0.00 0.00 44 1019.4
20260906045507 81 137 0.0 0.0 0.00 0.00 0.00 44 1019.7
20260906044916 81 130 0.0 0.0 0.00 0.00 0.00 44 1019.4
20260906044314 81 132 0.0 0.0 0.00 0.00 0.00 44 1019.7
20260906043909 81 137 0.0 0.0 0.00 0.00 0.00 43 1019.7
20260906043040 81 138 0.0 0.0 0.00 0.00 0.00 43 1019.4
20260906042516 81 144 0.0 0.0 0.00 0.00 0.00 43 1019.0
20260906042000 81 123 0.0 0.0 0.00 0.00 0.00 43 1019.4
20260906041400 81 124 2.0 4.0 0.00 0.00 0.00 43 1019.4
20260906040721 81 135 0.0 0.0 0.00 0.00 0.00 43 1019.0
20260906040341 82 139 0.0 0.0 0.00 0.00 0.00 43 1019.4
20260906035501 82 137 0.0 0.0 0.00 0.00 0.00 43 1019.4
20260906034842 82 135 0.0 0.0 0.00 0.00 0.00 42 1019.4
20260906034258 82 133 0.0 0.0 0.00 0.00 0.00 42 1018.7
20260906033933 83 140 0.0 0.0 0.00 0.00 0.00 41 1018.7
20260906033138 83 168 0.0 0.0 0.00 0.00 0.00 41 1018.7
20260906032639 83 137 0.0 0.0 0.00 0.00 0.00 41 1018.7
20260906032030 83 141 0.0 1.0 0.00 0.00 0.00 41 1018.7
20260906031418 83 151 0.0 8.0 0.00 0.00 0.00 41 1018.7
20260906031034 83 121 4.0 8.0 0.00 0.00 0.00 41 1018.7
20260906030200 83 145 0.0 0.0 0.00 0.00 0.00 42 1018.0
20260906025836 83 154 0.0 6.0 0.00 0.00 0.00 41 1017.7
20260906025544 83 150 0.0 2.0 0.00 0.00 0.00 42 1018.0
20260906024521 84 126 0.0 1.0 0.00 0.00 0.00 40 1017.7
20260906023755 84 149 0.0 0.0 0.00 0.00 0.00 40 1017.7
20260906022920 84 142 0.0 3.0 0.00 0.00 0.00 39 1017.7
20260906022312 84 149 0.0 0.0 0.00 0.00 0.00 38 1017.7
20260906021906 85 193 0.0 0.0 0.00 0.00 0.00 37 1017.3
20260906021024 85 138 0.0 0.0 0.00 0.00 0.00 36 1017.7
20260906020956 85 138 0.0 0.0 0.00 0.00 0.00 36 1017.3
20260906015658 85 130 0.0 0.0 0.00 0.00 0.00 35 1017.3
20260906015051 85 109 0.0 0.0 0.00 0.00 0.00 35 1017.3
20260906014631 85 133 0.0 0.0 0.00 0.00 0.00 35 1017.0
20260906013800 85 194 0.0 4.0 0.00 0.00 0.00 36 1017.0
20260906013208 86 202 1.0 4.0 0.00 0.00 0.00 35 1017.3
20260906012617 86 194 0.0 0.0 0.00 0.00 0.00 35 1017.3
20260906011958 86 144 0.0 0.0 0.00 0.00 0.00 35 1017.0
20260906011607 86 178 0.0 0.0 0.00 0.00 0.00 35 1017.3
20260906010652 86 177 0.0 0.0 0.00 0.00 0.00 35 1017.0
20260906010021 86 198 0.0 1.0 0.00 0.00 0.00 35 1017.0
20260906005411 87 206 0.0 0.0 0.00 0.00 0.00 35 1017.3
20260906004459 87 191 0.0 2.0 0.00 0.00 0.00 34 1017.0
20260906003919 87 193 0.0 7.0 0.00 0.00 0.00 35 1017.3
20260906003312 87 145 0.0 11.0 0.00 0.00 0.00 34 1017.0
20260906002710 87 122 9.0 11.0 0.00 0.00 0.00 35 1017.3
20260906002134 87 127 3.0 13.0 0.00 0.00 0.00 34 1017.0
20260906001359 88 115 10.0 15.0 0.00 0.00 0.00 33 1016.7
20260906000751 90 113 14.0 19.0 0.00 0.00 0.00 32 1017.0
20260905235837 89 116 8.0 14.0 0.00 0.00 0.00 31 1017.0
20260905235215 89 124 5.0 17.0 0.00 0.00 0.00 32 1017.0
20260905234713 88 166 13.0 17.0 0.00 0.00 0.00 34 1016.7
20260905234059 89 121 7.0 14.0 0.00 0.00 0.00 32 1016.7
20260905233503 89 167 11.0 15.0 0.00 0.00 0.00 33 1016.7
20260905232902 89 122 8.0 17.0 0.00 0.00 0.00 34 1017.0
20260905232258 92 153 9.0 19.0 0.00 0.00 0.00 32 1017.0
20260905231638 92 146 14.0 19.0 0.00 0.00 0.00 28 1016.7
20260905231017 92 108 13.0 17.0 0.00 0.00 0.00 27 1016.3
20260905230509 93 125 4.0 15.0 0.00 0.00 0.00 28 1016.3
20260905225923 92 124 12.0 17.0 0.00 0.00 0.00 28 1016.7
20260905225319 93 156 10.0 18.0 0.00 0.00 0.00 27 1016.3
20260905224642 94 130 13.0 18.0 0.00 0.00 0.00 28 1016.3
20260905224022 96 113 5.0 14.0 0.00 0.00 0.00 26 1016.7
20260905223548 95 137 6.0 13.0 0.00 0.00 0.00 26 1016.3
20260905222729 96 106 6.0 11.0 0.00 0.00 0.00 26 1016.0
20260905222128 94 124 7.0 21.0 0.00 0.00 0.00 26 1016.3
20260905221612 95 136 8.0 21.0 0.00 0.00 0.00 26 1016.3
20260905220959 96 159 8.0 9.0 0.00 0.00 0.00 26 1016.7
20260905220359 95 113 7.0 13.0 0.00 0.00 0.00 27 1016.3
20260905215500 96 150 9.0 15.0 0.00 0.00 0.00 27 1016.3
20260905215148 95 101 6.0 15.0 0.00 0.00 0.00 26 1016.7
20260905214259 94 122 10.0 13.0 0.00 0.00 0.00 27 1016.7
20260905213559 95 121 0.0 9.0 0.00 0.00 0.00 28 1017.0
20260905213452 96 92 4.0 11.0 0.00 0.00 0.00 26 1017.0
20260905212625 97 112 4.0 11.0 0.00 0.00 0.00 26 1016.7
20260905211817 96 99 4.0 11.0 0.00 0.00 0.00 26 1016.7
20260905211217 98 132 2.0 8.0 0.00 0.00 0.00 24 1017.3
20260905210611 96 162 4.0 8.0 0.00 0.00 0.00 25 1017.0
20260905210006 95 114 0.0 0.0 0.00 0.00 0.00 26 1017.0
20260905205405 97 135 5.0 6.0 0.00 0.00 0.00 24 1017.3
20260905204453 96 104 5.0 8.0 0.00 0.00 0.00 24 1017.3
20260905203819 97 187 0.0 3.0 0.00 0.00 0.00 24 1017.3
20260905203158 98 140 0.0 0.0 0.00 0.00 0.00 24 1017.3
20260905202437 98 155 0.0 4.0 0.00 0.00 0.00 23 1017.3
20260905201549 98 198 0.0 8.0 0.00 0.00 0.00 24 1017.3
20260905200858 98 194 6.0 8.0 0.00 0.00 0.00 23 1017.7
20260905200217 98 116 1.0 4.0 0.00 0.00 0.00 23 1017.7
20260905195518 97 178 0.0 9.0 0.00 0.00 0.00 25 1017.7
20260905194751 97 152 0.0 7.0 0.00 0.00 0.00 24 1017.7
20260905194143 97 185 0.0 7.0 0.00 0.00 0.00 24 1018.0
20260905193641 97 207 0.0 4.0 0.00 0.00 0.00 25 1017.7
20260905193058 99 180 0.0 6.0 0.00 0.00 0.00 24 1018.0
20260905192522 97 184 0.0 2.0 0.00 0.00 0.00 24 1018.0
20260905191910 98 177 1.0 2.0 0.00 0.00 0.00 25 1018.0
20260905191405 98 206 0.0 2.0 0.00 0.00 0.00 25 1018.3
20260905190731 97 195 1.0 2.0 0.00 0.00 0.00 25 1018.3
20260905190057 93 207 0.0 0.0 0.00 0.00 0.00 27 1018.0
20260905185418 94 139 0.0 10.0 0.00 0.00 0.00 27 1018.3
20260905184908 96 121 0.0 10.0 0.00 0.00 0.00 25 1018.3
20260905184309 97 162 0.0 4.0 0.00 0.00 0.00 26 1018.3
20260905183551 98 158 0.0 8.0 0.00 0.00 0.00 25 1019.0
20260905183008 98 177 0.0 1.0 0.00 0.00 0.00 26 1018.7
20260905182313 95 208 0.0 0.0 0.00 0.00 0.00 28 1019.0
20260905181650 94 107 0.0 2.0 0.00 0.00 0.00 29 1019.0
20260905181316 94 115 1.0 7.0 0.00 0.00 0.00 29 1018.7
20260905180429 94 225 0.0 1.0 0.00 0.00 0.00 29 1019.0
20260905175600 93 152 0.0 6.0 0.00 0.00 0.00 29 1018.7
20260905174940 94 187 4.0 6.0 0.00 0.00 0.00 29 1019.4
20260905174341 95 119 2.0 3.0 0.00 0.00 0.00 28 1019.0
20260905173733 93 200 0.0 4.0 0.00 0.00 0.00 30 1019.0
20260905173210 93 140 3.0 4.0 0.00 0.00 0.00 31 1019.0
20260905172815 92 162 0.0 6.0 0.00 0.00 0.00 30 1019.4
20260905171943 93 121 0.0 0.0 0.00 0.00 0.00 30 1019.4
20260905171323 94 173 0.0 0.0 0.00 0.00 0.00 30 1019.0
20260905170659 92 203 0.0 0.0 0.00 0.00 0.00 31 1019.4
20260905170345 93 179 0.0 0.0 0.00 0.00 0.00 31 1019.0
20260905165518 93 200 0.0 6.0 0.00 0.00 0.00 30 1019.4
20260905164857 92 125 0.0 3.0 0.00 0.00 0.00 32 1019.4
20260905164235 91 179 0.0 4.0 0.00 0.00 0.00 34 1019.4
20260905163822 90 165 0.0 1.0 0.00 0.00 0.00 34 1019.4
20260905162910 90 181 0.0 1.0 0.00 0.00 0.00 34 1019.4
20260905162406 89 155 0.0 0.0 0.00 0.00 0.00 35 1019.4
20260905161854 88 188 0.0 0.0 0.00 0.00 0.00 36 1019.4
20260905161221 89 195 0.0 1.0 0.00 0.00 0.00 35 1019.4
20260905160607 88 171 0.0 3.0 0.00 0.00 0.00 36 1019.4
20260905160212 88 162 2.0 3.0 0.00 0.00 0.00 37 1019.4
20260905155437 88 209 0.0 0.0 0.00 0.00 0.00 38 1019.0
20260905154810 87 175 0.0 0.0 0.00 0.00 0.00 39 1019.0
20260905154112 87 187 0.0 1.0 0.00 0.00 0.00 41 1019.0
20260905153737 85 160 0.0 1.0 0.00 0.00 0.00 43 1019.4
20260905152906 84 190 0.0 0.0 0.00 0.00 0.00 44 1019.0
20260905152306 83 194 0.0 1.0 0.00 0.00 0.00 46 1019.0
20260905151645 82 165 0.0 0.0 0.00 0.00 0.00 48 1019.0
20260905151004 82 162 0.0 1.0 0.00 0.00 0.00 49 1019.0
20260905150344 80 145 0.0 1.0 0.00 0.00 0.00 51 1019.4
20260905145648 80 188 0.0 2.0 0.00 0.00 0.00 53 1019.4
20260905145236 79 135 1.0 8.0 0.00 0.00 0.00 55 1019.0
20260905144408 79 136 0.0 6.0 0.00 0.00 0.00 55 1019.7
20260905143752 78 192 4.0 6.0 0.00 0.00 0.00 57 1019.4
20260905143117 78 196 1.0 2.0 0.00 0.00 0.00 58 1019.4
20260905142517 77 195 0.0 7.0 0.00 0.00 0.00 59 1019.4
20260905141926 76 201 4.0 7.0 0.00 0.00 0.00 60 1019.4
20260905141259 75 196 0.0 3.0 0.00 0.00 0.00 62 1019.4
20260905140653 75 184 0.0 4.0 0.00 0.00 0.00 62 1019.0
20260905140019 75 127 2.0 4.0 0.00 0.00 0.00 63 1019.0
20260905135407 74 177 1.0 3.0 0.00 0.00 0.00 64 1019.4
20260905135230 73 145 0.0 4.0 0.00 0.00 0.00 65 1019.0
20260905134116 73 150 0.0 3.0 0.00 0.00 0.00 66 1019.0
20260905133518 73 139 3.0 3.0 0.00 0.00 0.00 67 1019.0
20260905133110 72 155 0.0 2.0 0.00 0.00 0.00 67 1019.0
20260905132217 72 181 0.0 2.0 0.00 0.00 0.00 69 1019.0